This is the latest recevied weather packets stored in our database for station/object AB4KY. If no packets are shown the sender has not sent any weather packets the latest 10 day(s).
| Time | Temp. | Humidity | Pressure | Rain* | Wind** | Luminosity | Snow |
|---|---|---|---|---|---|---|---|
| 1778103331 | 15° C | 63% | 1011.3 hPa | 0 mm | - | 105 W/m² | - |
| 1778103028 | 15° C | 67% | 1011.3 hPa | 0 mm | - | 103 W/m² | - |
| 1778102724 | 15° C | 61% | 1011.3 hPa | 0 mm | - | 120 W/m² | - |
| 1778102419 | 15° C | 60% | 1011.5 hPa | 0 mm | - | 133 W/m² | - |
| 1778102115 | 15.56° C | 66% | 1011.4 hPa | 0 mm | - | 120 W/m² | - |
| 1778101813 | 15.56° C | 57% | 1011.5 hPa | 0 mm | - | 133 W/m² | - |
| 1778101509 | 15.56° C | 60% | 1011 hPa | 0 mm | - | 159 W/m² | - |
| 1778101206 | 15.56° C | 60% | 1011.1 hPa | 0 mm | - | 159 W/m² | - |
| 1778100903 | 15.56° C | 58% | 1011.4 hPa | 0 mm | - | 158 W/m² | - |
| 1778100598 | 15.56° C | 60% | 1011.3 hPa | 0 mm | - | 182 W/m² | - |
| 1778100296 | 15.56° C | 57% | 1011.3 hPa | 0 mm | - | 137 W/m² | - |
| 1778099993 | 15.56° C | 63% | 1011.6 hPa | 0 mm | - | 223 W/m² | - |
| 1778099691 | 15.56° C | 61% | 1011.4 hPa | 0 mm | - | 204 W/m² | - |
| 1778099388 | 16.11° C | 66% | 1011.4 hPa | 0 mm | - | 220 W/m² | - |
| 1778099085 | 15.56° C | 61% | 1011.3 hPa | 0 mm | - | 221 W/m² | - |
| 1778098781 | 15.56° C | 58% | 1011.1 hPa | 0 mm | - | 226 W/m² | - |
| 1778098479 | 15.56° C | 61% | 1011.4 hPa | 0 mm | - | 241 W/m² | - |
| 1778098175 | 16.11° C | 63% | 1011.3 hPa | 0 mm | - | 221 W/m² | - |
| 1778097872 | 15.56° C | 60% | 1011 hPa | 0 mm | - | 224 W/m² | - |
| 1778097568 | 15.56° C | 59% | 1011.3 hPa | 0 mm | - | 223 W/m² | - |
| 1778097265 | 15.56° C | 63% | 1011.4 hPa | 0 mm | - | 149 W/m² | - |
| 1778096962 | 15.56° C | 59% | 1011.4 hPa | 0 mm | - | 262 W/m² | - |
| 1778096659 | 15.56° C | 63% | 1011.7 hPa | 0 mm | - | 232 W/m² | - |
| 1778096356 | 15.56° C | 60% | 1011.7 hPa | 0 mm | - | 228 W/m² | - |
| 1778096053 | 15.56° C | 62% | 1011.5 hPa | 0 mm | - | 248 W/m² | - |
* Rain latest hour (hover to see other rain measurements)
** Current wind speed in m/s (hover to see current wind gust speed)